Wetterdaten: Freitag, 20.11.2015
Datum Zeit Temp. A. Feuchte A. Luftdruck Regen Wind Richtung Richtung Sonnenschein ET UV Solar Taupunkt Windchill Windben Empfang
20.11.2015 00:00 15,0 C 60 % 1010,4 hPa 0,0 l/m 16,0 km/h (3 Bft) W-SW 255 0 min 0,000 mm 0,0 UV-I 0 W/m 7,3 C 10,9 C 27,4 km/h (4 Bft) 98,45 %
20.11.2015 00:05 14,9 C 60 % 1010,3 hPa 0,0 l/m 13,7 km/h (3 Bft) SW 232 0 min 0,000 mm 0,0 UV-I 0 W/m 7,2 C 11,5 C 30,6 km/h (5 Bft) 97,44 %
20.11.2015 00:10 14,9 C 60 % 1010,2 hPa 0,0 l/m 14,9 km/h (3 Bft) W-SW 245 0 min 0,000 mm 0,0 UV-I 0 W/m 7,2 C 11,1 C 25,7 km/h (4 Bft) 100,00 %
20.11.2015 00:15 14,9 C 59 % 1010,0 hPa 0,0 l/m 15,1 km/h (3 Bft) SW 217 0 min 0,000 mm 0,0 UV-I 0 W/m 7,0 C 11,0 C 29,0 km/h (5 Bft) 99,21 %
20.11.2015 00:20 15,1 C 59 % 1009,8 hPa 0,0 l/m 14,0 km/h (3 Bft) S-SW 197 0 min 0,000 mm 0,0 UV-I 0 W/m 7,1 C 11,6 C 29,0 km/h (5 Bft) 100,00 %
20.11.2015 00:25 15,1 C 59 % 1009,7 hPa 0,0 l/m 14,8 km/h (3 Bft) W-SW 242 0 min 0,000 mm 0,0 UV-I 0 W/m 7,1 C 11,4 C 30,6 km/h (5 Bft) 99,17 %
20.11.2015 00:30 15,2 C 58 % 1009,7 hPa 0,0 l/m 14,8 km/h (3 Bft) W-NW 282 0 min 0,000 mm 0,0 UV-I 0 W/m 7,0 C 11,5 C 25,7 km/h (4 Bft) 100,00 %
20.11.2015 00:35 15,4 C 57 % 1009,6 hPa 0,0 l/m 17,1 km/h (3 Bft) W-NW 286 0 min 0,000 mm 0,0 UV-I 0 W/m 6,9 C 11,0 C 41,8 km/h (6 Bft) 99,12 %
20.11.2015 00:40 15,7 C 57 % 1009,5 hPa 0,0 l/m 14,7 km/h (3 Bft) W-SW 251 0 min 0,000 mm 0,0 UV-I 0 W/m 7,2 C 12,1 C 32,2 km/h (5 Bft) 100,00 %
20.11.2015 00:45 15,8 C 57 % 1009,5 hPa 0,0 l/m 12,8 km/h (3 Bft) SW 234 0 min 0,000 mm 0,0 UV-I 0 W/m 7,3 C 12,9 C 22,5 km/h (4 Bft) 99,19 %
20.11.2015 00:50 15,8 C 57 % 1009,5 hPa 0,0 l/m 14,9 km/h (3 Bft) S-SW 209 0 min 0,000 mm 0,0 UV-I 0 W/m 7,3 C 12,2 C 27,4 km/h (4 Bft) 99,12 %
20.11.2015 00:55 15,9 C 56 % 1009,3 hPa 0,0 l/m 15,4 km/h (3 Bft) W-SW 248 0 min 0,000 mm 0,0 UV-I 0 W/m 7,1 C 12,2 C 27,4 km/h (4 Bft) 100,00 %
20.11.2015 01:00 16,1 C 56 % 1009,2 hPa 0,0 l/m 18,3 km/h (3 Bft) W-SW 238 0 min 0,000 mm 0,0 UV-I 0 W/m 7,3 C 11,6 C 29,0 km/h (5 Bft) 99,17 %
20.11.2015 01:05 16,2 C 56 % 1009,3 hPa 0,0 l/m 17,0 km/h (3 Bft) W 268 0 min 0,076 mm 0,0 UV-I 0 W/m 7,4 C 12,1 C 29,0 km/h (5 Bft) 100,00 %
20.11.2015 01:10 16,4 C 56 % 1009,3 hPa 0,0 l/m 16,8 km/h (3 Bft) N-NW 346 0 min 0,000 mm 0,0 UV-I 0 W/m 7,6 C 12,4 C 35,4 km/h (5 Bft) 99,11 %
20.11.2015 01:15 16,4 C 57 % 1009,3 hPa 0,0 l/m 16,0 km/h (3 Bft) W 262 0 min 0,000 mm 0,0 UV-I 0 W/m 7,9 C 12,6 C 32,2 km/h (5 Bft) 99,19 %
20.11.2015 01:20 16,6 C 58 % 1009,2 hPa 0,0 l/m 16,0 km/h (3 Bft) W-NW 299 0 min 0,000 mm 0,0 UV-I 0 W/m 8,3 C 12,8 C 25,7 km/h (4 Bft) 100,00 %
20.11.2015 01:25 16,5 C 58 % 1009,2 hPa 0,0 l/m 19,2 km/h (3 Bft) W 263 0 min 0,000 mm 0,0 UV-I 0 W/m 8,2 C 11,9 C 38,6 km/h (5 Bft) 100,00 %
20.11.2015 01:30 16,6 C 59 % 1008,9 hPa 0,0 l/m 21,1 km/h (4 Bft) W-SW 249 0 min 0,000 mm 0,0 UV-I 0 W/m 8,6 C 11,6 C 41,8 km/h (6 Bft) 99,12 %
20.11.2015 01:35 16,7 C 59 % 1008,8 hPa 0,0 l/m 18,4 km/h (3 Bft) SW 235 0 min 0,000 mm 0,0 UV-I 0 W/m 8,6 C 12,3 C 37,0 km/h (5 Bft) 98,39 %
20.11.2015 01:40 16,8 C 58 % 1008,8 hPa 0,0 l/m 20,9 km/h (4 Bft) SW 232 0 min 0,000 mm 0,0 UV-I 0 W/m 8,5 C 11,9 C 33,8 km/h (5 Bft) 99,11 %
20.11.2015 01:45 16,9 C 57 % 1008,7 hPa 0,0 l/m 20,2 km/h (4 Bft) W-NW 296 0 min 0,000 mm 0,0 UV-I 0 W/m 8,3 C 12,2 C 41,8 km/h (6 Bft) 97,37 %
20.11.2015 01:50 16,9 C 57 % 1008,8 hPa 0,0 l/m 17,3 km/h (3 Bft) W 278 0 min 0,000 mm 0,0 UV-I 0 W/m 8,3 C 12,9 C 29,0 km/h (5 Bft) 100,00 %
20.11.2015 01:55 16,9 C 56 % 1008,8 hPa 0,0 l/m 19,1 km/h (3 Bft) W 277 0 min 0,000 mm 0,0 UV-I 0 W/m 8,1 C 12,4 C 41,8 km/h (6 Bft) 100,00 %
20.11.2015 02:00 17,0 C 56 % 1008,8 hPa 0,0 l/m 19,2 km/h (3 Bft) SW 231 0 min 0,102 mm 0,0 UV-I 0 W/m 8,2 C 12,5 C 32,2 km/h (5 Bft) 99,22 %
20.11.2015 02:05 17,1 C 56 % 1008,9 hPa 0,0 l/m 19,7 km/h (3 Bft) W-SW 251 0 min 0,000 mm 0,0 UV-I 0 W/m 8,3 C 12,5 C 35,4 km/h (5 Bft) 99,11 %
20.11.2015 02:10 17,1 C 56 % 1008,9 hPa 0,0 l/m 15,2 km/h (3 Bft) W-NW 301 0 min 0,000 mm 0,0 UV-I 0 W/m 8,3 C 13,7 C 27,4 km/h (4 Bft) 99,21 %
20.11.2015 02:15 17,2 C 56 % 1008,9 hPa 0,0 l/m 20,8 km/h (4 Bft) W-SW 248 0 min 0,000 mm 0,0 UV-I 0 W/m 8,3 C 12,4 C 32,2 km/h (5 Bft) 99,11 %
20.11.2015 02:20 17,2 C 56 % 1009,0 hPa 0,0 l/m 17,9 km/h (3 Bft) W-SW 248 0 min 0,000 mm 0,0 UV-I 0 W/m 8,3 C 13,1 C 33,8 km/h (5 Bft) 99,11 %
20.11.2015 02:25 17,3 C 56 % 1008,8 hPa 0,0 l/m 19,7 km/h (3 Bft) W 281 0 min 0,000 mm 0,0 UV-I 0 W/m 8,4 C 12,8 C 37,0 km/h (5 Bft) 99,17 %
20.11.2015 02:30 17,3 C 55 % 1009,1 hPa 0,0 l/m 18,8 km/h (3 Bft) W 265 0 min 0,000 mm 0,0 UV-I 0 W/m 8,2 C 13,0 C 33,8 km/h (5 Bft) 100,00 %
20.11.2015 02:35 17,3 C 56 % 1009,0 hPa 0,0 l/m 17,6 km/h (3 Bft) N 360 0 min 0,000 mm 0,0 UV-I 0 W/m 8,4 C 13,3 C 32,2 km/h (5 Bft) 99,13 %
20.11.2015 02:40 17,3 C 55 % 1008,9 hPa 0,0 l/m 18,8 km/h (3 Bft) W 266 0 min 0,000 mm 0,0 UV-I 0 W/m 8,2 C 13,0 C 45,1 km/h (6 Bft) 99,19 %
20.11.2015 02:45 17,3 C 56 % 1008,8 hPa 0,0 l/m 21,6 km/h (4 Bft) S-SW 207 0 min 0,000 mm 0,0 UV-I 0 W/m 8,4 C 12,4 C 43,5 km/h (6 Bft) 100,00 %
20.11.2015 02:50 17,3 C 56 % 1008,8 hPa 0,0 l/m 16,5 km/h (3 Bft) W 281 0 min 0,000 mm 0,0 UV-I 0 W/m 8,4 C 13,6 C 30,6 km/h (5 Bft) 99,12 %
20.11.2015 02:55 17,3 C 56 % 1008,6 hPa 0,0 l/m 20,6 km/h (4 Bft) W 273 0 min 0,000 mm 0,0 UV-I 0 W/m 8,4 C 12,6 C 35,4 km/h (5 Bft) 100,00 %
20.11.2015 03:00 17,2 C 57 % 1008,3 hPa 0,0 l/m 16,3 km/h (3 Bft) W-SW 250 0 min 0,101 mm 0,0 UV-I 0 W/m 8,6 C 13,5 C 27,4 km/h (4 Bft) 98,31 %
20.11.2015 03:05 17,2 C 57 % 1008,3 hPa 0,0 l/m 19,5 km/h (3 Bft) SW 230 0 min 0,000 mm 0,0 UV-I 0 W/m 8,6 C 12,7 C 38,6 km/h (5 Bft) 97,44 %
20.11.2015 03:10 17,2 C 58 % 1008,2 hPa 0,0 l/m 21,2 km/h (4 Bft) W 269 0 min 0,000 mm 0,0 UV-I 0 W/m 8,9 C 12,3 C 41,8 km/h (6 Bft) 99,19 %
20.11.2015 03:15 17,2 C 58 % 1008,2 hPa 0,0 l/m 17,6 km/h (3 Bft) W 281 0 min 0,000 mm 0,0 UV-I 0 W/m 8,9 C 13,2 C 32,2 km/h (5 Bft) 100,00 %
20.11.2015 03:20 17,2 C 58 % 1008,3 hPa 0,0 l/m 18,2 km/h (3 Bft) W-SW 251 0 min 0,000 mm 0,0 UV-I 0 W/m 8,9 C 13,0 C 40,2 km/h (6 Bft) 100,00 %
20.11.2015 03:25 17,2 C 58 % 1008,1 hPa 0,0 l/m 18,4 km/h (3 Bft) W 270 0 min 0,000 mm 0,0 UV-I 0 W/m 8,9 C 13,0 C 32,2 km/h (5 Bft) 99,08 %
20.11.2015 03:30 17,1 C 59 % 1008,2 hPa 0,0 l/m 16,4 km/h (3 Bft) W-NW 296 0 min 0,000 mm 0,0 UV-I 0 W/m 9,0 C 13,3 C 29,0 km/h (5 Bft) 100,00 %
20.11.2015 03:35 17,2 C 58 % 1008,1 hPa 0,0 l/m 22,0 km/h (4 Bft) W-NW 303 0 min 0,000 mm 0,0 UV-I 0 W/m 8,9 C 12,2 C 41,8 km/h (6 Bft) 97,39 %
20.11.2015 03:40 17,2 C 58 % 1007,9 hPa 0,0 l/m 21,8 km/h (4 Bft) W-SW 254 0 min 0,000 mm 0,0 UV-I 0 W/m 8,9 C 12,2 C 41,8 km/h (6 Bft) 99,17 %
20.11.2015 03:45 17,2 C 58 % 1007,6 hPa 0,0 l/m 20,2 km/h (4 Bft) SW 222 0 min 0,000 mm 0,0 UV-I 0 W/m 8,9 C 12,5 C 41,8 km/h (6 Bft) 98,33 %
20.11.2015 03:50 17,1 C 59 % 1007,7 hPa 0,0 l/m 19,8 km/h (3 Bft) W-SW 254 0 min 0,000 mm 0,0 UV-I 0 W/m 9,0 C 12,5 C 45,1 km/h (6 Bft) 100,00 %
20.11.2015 03:55 17,1 C 59 % 1007,8 hPa 0,0 l/m 18,7 km/h (3 Bft) NW 319 0 min 0,000 mm 0,0 UV-I 0 W/m 9,0 C 12,8 C 33,8 km/h (5 Bft) 98,26 %
20.11.2015 04:00 17,0 C 59 % 1007,8 hPa 0,0 l/m 19,0 km/h (3 Bft) W 266 0 min 0,102 mm 0,0 UV-I 0 W/m 8,9 C 12,6 C 32,2 km/h (5 Bft) 100,00 %
20.11.2015 04:05 17,0 C 58 % 1007,6 hPa 0,0 l/m 22,0 km/h (4 Bft) SW 225 0 min 0,000 mm 0,0 UV-I 0 W/m 8,7 C 11,9 C 43,5 km/h (6 Bft) 100,00 %
20.11.2015 04:10 17,0 C 58 % 1007,5 hPa 0,0 l/m 20,1 km/h (4 Bft) SW 235 0 min 0,000 mm 0,0 UV-I 0 W/m 8,7 C 12,3 C 33,8 km/h (5 Bft) 98,29 %
20.11.2015 04:15 17,0 C 59 % 1007,3 hPa 0,0 l/m 18,2 km/h (3 Bft) SW 219 0 min 0,000 mm 0,0 UV-I 0 W/m 8,9 C 12,8 C 32,2 km/h (5 Bft) 100,00 %
20.11.2015 04:20 17,0 C 58 % 1007,2 hPa 0,0 l/m 21,4 km/h (4 Bft) W 259 0 min 0,000 mm 0,0 UV-I 0 W/m 8,7 C 12,0 C 40,2 km/h (6 Bft) 99,11 %
20.11.2015 04:25 17,0 C 59 % 1007,4 hPa 0,0 l/m 17,8 km/h (3 Bft) SW 214 0 min 0,000 mm 0,0 UV-I 0 W/m 8,9 C 12,9 C 30,6 km/h (5 Bft) 98,37 %
20.11.2015 04:30 16,9 C 59 % 1007,3 hPa 0,0 l/m 18,1 km/h (3 Bft) SW 235 0 min 0,000 mm 0,0 UV-I 0 W/m 8,8 C 12,7 C 40,2 km/h (6 Bft) 99,11 %
20.11.2015 04:35 16,9 C 59 % 1007,3 hPa 0,0 l/m 20,0 km/h (4 Bft) SW 219 0 min 0,000 mm 0,0 UV-I 0 W/m 8,8 C 12,2 C 43,5 km/h (6 Bft) 100,00 %
20.11.2015 04:40 16,9 C 59 % 1007,3 hPa 0,0 l/m 18,4 km/h (3 Bft) W-NW 299 0 min 0,000 mm 0,0 UV-I 0 W/m 8,8 C 12,6 C 35,4 km/h (5 Bft) 99,13 %
20.11.2015 04:45 16,9 C 60 % 1007,3 hPa 0,0 l/m 18,4 km/h (3 Bft) W 263 0 min 0,000 mm 0,0 UV-I 0 W/m 9,1 C 12,6 C 33,8 km/h (5 Bft) 99,13 %
20.11.2015 04:50 16,9 C 60 % 1007,4 hPa 0,0 l/m 16,3 km/h (3 Bft) W 277 0 min 0,000 mm 0,0 UV-I 0 W/m 9,1 C 13,1 C 27,4 km/h (4 Bft) 100,00 %
20.11.2015 04:55 16,8 C 60 % 1007,3 hPa 0,0 l/m 14,0 km/h (3 Bft) W 259 0 min 0,000 mm 0,0 UV-I 0 W/m 9,0 C 13,7 C 24,1 km/h (4 Bft) 98,41 %
20.11.2015 05:00 16,8 C 60 % 1007,3 hPa 0,0 l/m 19,0 km/h (3 Bft) W-NW 297 0 min 0,000 mm 0,0 UV-I 0 W/m 9,0 C 12,3 C 37,0 km/h (5 Bft) 100,00 %
20.11.2015 05:05 16,8 C 60 % 1007,0 hPa 0,0 l/m 19,8 km/h (3 Bft) W-SW 238 0 min 0,102 mm 0,0 UV-I 0 W/m 9,0 C 12,1 C 45,1 km/h (6 Bft) 98,25 %
20.11.2015 05:10 16,9 C 60 % 1007,1 hPa 0,0 l/m 22,0 km/h (4 Bft) W 279 0 min 0,000 mm 0,0 UV-I 0 W/m 9,1 C 11,8 C 41,8 km/h (6 Bft) 100,00 %
20.11.2015 05:15 16,9 C 60 % 1007,3 hPa 0,0 l/m 18,7 km/h (3 Bft) W 263 0 min 0,000 mm 0,0 UV-I 0 W/m 9,1 C 12,5 C 30,6 km/h (5 Bft) 100,00 %
20.11.2015 05:20 16,9 C 60 % 1007,3 hPa 0,0 l/m 20,4 km/h (4 Bft) W-NW 303 0 min 0,000 mm 0,0 UV-I 0 W/m 9,1 C 12,1 C 41,8 km/h (6 Bft) 98,20 %
20.11.2015 05:25 16,9 C 60 % 1007,3 hPa 0,0 l/m 19,1 km/h (3 Bft) SW 233 0 min 0,000 mm 0,0 UV-I 0 W/m 9,1 C 12,4 C 38,6 km/h (5 Bft) 99,21 %
20.11.2015 05:30 16,9 C 60 % 1007,6 hPa 0,0 l/m 18,5 km/h (3 Bft) S 169 0 min 0,000 mm 0,0 UV-I 0 W/m 9,1 C 12,6 C 49,9 km/h (6 Bft) 100,00 %
20.11.2015 05:35 15,5 C 68 % 1008,6 hPa 0,0 l/m 6,9 km/h (2 Bft) S-SW 198 0 min 0,000 mm 0,0 UV-I 0 W/m 9,6 C 15,2 C 16,1 km/h (3 Bft) 100,00 %
20.11.2015 05:40 13,4 C 77 % 1008,7 hPa 0,2 l/m 6,6 km/h (2 Bft) NW 318 0 min 0,000 mm 0,0 UV-I 0 W/m 9,5 C 13,3 C 24,1 km/h (4 Bft) 100,00 %
20.11.2015 05:45 12,1 C 84 % 1008,9 hPa 0,0 l/m 6,2 km/h (2 Bft) NW 313 0 min 0,000 mm 0,0 UV-I 0 W/m 9,5 C 12,1 C 16,1 km/h (3 Bft) 100,00 %
20.11.2015 05:50 11,4 C 87 % 1008,8 hPa 0,2 l/m 4,3 km/h (1 Bft) W-NW 283 0 min 0,000 mm 0,0 UV-I 0 W/m 9,3 C 11,4 C 17,7 km/h (3 Bft) 100,00 %
20.11.2015 05:55 11,1 C 88 % 1008,9 hPa 0,0 l/m 4,9 km/h (1 Bft) N-NW 338 0 min 0,000 mm 0,0 UV-I 0 W/m 9,2 C 11,1 C 14,5 km/h (3 Bft) 98,26 %
20.11.2015 06:00 10,9 C 89 % 1008,9 hPa 0,4 l/m 5,2 km/h (1 Bft) W-NW 298 0 min 0,050 mm 0,0 UV-I 0 W/m 9,2 C 10,9 C 16,1 km/h (3 Bft) 98,25 %
20.11.2015 06:05 10,6 C 90 % 1008,6 hPa 0,2 l/m 5,1 km/h (1 Bft) N 350 0 min 0,000 mm 0,0 UV-I 0 W/m 9,0 C 10,6 C 12,9 km/h (3 Bft) 99,17 %
20.11.2015 06:10 10,4 C 91 % 1009,1 hPa 0,2 l/m 4,7 km/h (1 Bft) N 355 0 min 0,000 mm 0,0 UV-I 0 W/m 9,0 C 10,4 C 9,7 km/h (2 Bft) 99,08 %
20.11.2015 06:15 10,3 C 92 % 1009,5 hPa 0,0 l/m 3,8 km/h (1 Bft) N-NW 338 0 min 0,000 mm 0,0 UV-I 0 W/m 9,1 C 10,3 C 11,3 km/h (2 Bft) 100,00 %
20.11.2015 06:20 10,2 C 92 % 1009,6 hPa 0,2 l/m 3,4 km/h (1 Bft) SW 221 0 min 0,000 mm 0,0 UV-I 0 W/m 9,0 C 10,2 C 12,9 km/h (3 Bft) 99,19 %
20.11.2015 06:25 10,2 C 93 % 1009,5 hPa 0,2 l/m 2,5 km/h (1 Bft) N-NO 12 0 min 0,000 mm 0,0 UV-I 0 W/m 9,1 C 10,2 C 11,3 km/h (2 Bft) 100,00 %
20.11.2015 06:30 10,1 C 93 % 1009,5 hPa 0,2 l/m 4,0 km/h (1 Bft) W-NW 292 0 min 0,000 mm 0,0 UV-I 0 W/m 9,0 C 10,1 C 11,3 km/h (2 Bft) 99,17 %
20.11.2015 06:35 10,1 C 93 % 1009,3 hPa 0,0 l/m 3,6 km/h (1 Bft) W-SW 240 0 min 0,000 mm 0,0 UV-I 0 W/m 9,0 C 10,1 C 12,9 km/h (3 Bft) 99,13 %
20.11.2015 06:40 10,1 C 93 % 1009,5 hPa 0,2 l/m 4,7 km/h (1 Bft) W 279 0 min 0,000 mm 0,0 UV-I 0 W/m 9,0 C 10,1 C 11,3 km/h (2 Bft) 100,00 %
20.11.2015 06:45 10,0 C 92 % 1009,8 hPa 0,0 l/m 5,1 km/h (1 Bft) SW 218 0 min 0,000 mm 0,0 UV-I 0 W/m 8,8 C 10,0 C 12,9 km/h (3 Bft) 100,00 %
20.11.2015 06:50 9,9 C 91 % 1009,6 hPa 0,2 l/m 6,7 km/h (2 Bft) W 279 0 min 0,000 mm 0,0 UV-I 0 W/m 8,5 C 9,7 C 17,7 km/h (3 Bft) 100,00 %
20.11.2015 06:55 9,8 C 92 % 1009,6 hPa 0,0 l/m 3,0 km/h (1 Bft) NW 316 0 min 0,000 mm 0,0 UV-I 0 W/m 8,6 C 9,8 C 8,0 km/h (2 Bft) 98,26 %
20.11.2015 07:00 9,7 C 93 % 1009,5 hPa 0,0 l/m 4,9 km/h (1 Bft) W 281 0 min 0,000 mm 0,0 UV-I 0 W/m 8,6 C 9,7 C 14,5 km/h (3 Bft) 100,00 %
20.11.2015 07:05 9,7 C 93 % 1009,8 hPa 0,0 l/m 4,2 km/h (1 Bft) W 279 0 min 0,000 mm 0,0 UV-I 0 W/m 8,6 C 9,7 C 9,7 km/h (2 Bft) 98,21 %
20.11.2015 07:10 9,6 C 93 % 1009,9 hPa 0,2 l/m 3,8 km/h (1 Bft) W 273 0 min 0,000 mm 0,0 UV-I 0 W/m 8,5 C 9,6 C 6,4 km/h (2 Bft) 98,41 %
20.11.2015 07:15 9,6 C 93 % 1010,0 hPa 0,0 l/m 4,8 km/h (1 Bft) W-NW 295 0 min 0,000 mm 0,0 UV-I 0 W/m 8,5 C 9,6 C 11,3 km/h (2 Bft) 100,00 %
20.11.2015 07:20 9,6 C 93 % 1010,0 hPa 0,2 l/m 4,7 km/h (1 Bft) W-NW 291 0 min 0,000 mm 0,0 UV-I 0 W/m 8,5 C 9,6 C 11,3 km/h (2 Bft) 100,00 %
20.11.2015 07:25 9,5 C 93 % 1010,3 hPa 0,0 l/m 2,2 km/h (1 Bft) W 281 0 min 0,000 mm 0,0 UV-I 0 W/m 8,4 C 9,5 C 6,4 km/h (2 Bft) 98,31 %
20.11.2015 07:30 9,4 C 94 % 1010,4 hPa 0,2 l/m 3,1 km/h (1 Bft) W 261 0 min 0,000 mm 0,0 UV-I 0 W/m 8,5 C 9,4 C 6,4 km/h (2 Bft) 98,11 %
20.11.2015 07:35 9,4 C 93 % 1010,3 hPa 0,0 l/m 2,9 km/h (1 Bft) W-NW 293 0 min 0,000 mm 0,0 UV-I 0 W/m 8,3 C 9,4 C 9,7 km/h (2 Bft) 99,15 %
20.11.2015 07:40 9,5 C 93 % 1010,4 hPa 0,0 l/m 2,4 km/h (1 Bft) SW 227 0 min 0,000 mm 0,0 UV-I 0 W/m 8,4 C 9,5 C 6,4 km/h (2 Bft) 100,00 %
20.11.2015 07:45 9,5 C 93 % 1010,4 hPa 0,0 l/m 3,7 km/h (1 Bft) SW 229 0 min 0,000 mm 0,0 UV-I 0 W/m 8,4 C 9,5 C 6,4 km/h (2 Bft) 99,17 %
20.11.2015 07:50 9,4 C 94 % 1010,4 hPa 0,0 l/m 3,5 km/h (1 Bft) W-SW 239 0 min 0,000 mm 0,0 UV-I 4 W/m 8,5 C 9,4 C 6,4 km/h (2 Bft) 96,23 %
20.11.2015 07:55 9,4 C 94 % 1010,4 hPa 0,2 l/m 5,7 km/h (1 Bft) S-SW 206 0 min 0,000 mm 0,0 UV-I 5 W/m 8,5 C 9,4 C 9,7 km/h (2 Bft) 99,23 %
20.11.2015 08:00 9,5 C 93 % 1010,5 hPa 0,2 l/m 5,5 km/h (1 Bft) SW 224 0 min 0,000 mm 0,0 UV-I 7 W/m 8,4 C 9,5 C 9,7 km/h (2 Bft) 100,00 %
20.11.2015 08:05 9,4 C 93 % 1010,5 hPa 0,0 l/m 4,2 km/h (1 Bft) W-NW 294 0 min 0,000 mm 0,0 UV-I 9 W/m 8,3 C 9,4 C 8,0 km/h (2 Bft) 100,00 %
20.11.2015 08:10 9,4 C 92 % 1010,5 hPa 0,0 l/m 1,4 km/h (1 Bft) W 269 0 min 0,000 mm 0,0 UV-I 10 W/m 8,2 C 9,4 C 9,7 km/h (2 Bft) 99,15 %
20.11.2015 08:15 9,4 C 92 % 1010,7 hPa 0,0 l/m 0,9 km/h (0 Bft) N-NW 340 0 min 0,000 mm 0,0 UV-I 11 W/m 8,2 C 9,4 C 14,5 km/h (3 Bft) 97,78 %
20.11.2015 08:20 9,3 C 92 % 1010,7 hPa 0,2 l/m 0,0 km/h (0 Bft) N-NW 340 0 min 0,000 mm 0,0 UV-I 14 W/m 8,1 C 9,3 C 0,0 km/h (0 Bft) 97,32 %
20.11.2015 08:25 9,3 C 92 % 1010,7 hPa 0,0 l/m 0,0 km/h (0 Bft) N-NW 340 0 min 0,000 mm 0,0 UV-I 16 W/m 8,1 C 9,3 C 0,0 km/h (0 Bft) 97,56 %
20.11.2015 08:30 9,2 C 92 % 1011,0 hPa 0,0 l/m 0,0 km/h (0 Bft) N-NW 340 0 min 0,000 mm 0,0 UV-I 16 W/m 8,0 C 9,2 C 0,0 km/h (0 Bft) 97,52 %
20.11.2015 08:35 9,0 C 91 % 1010,9 hPa 0,2 l/m 0,0 km/h (0 Bft) N-NW 340 0 min 0,000 mm 0,0 UV-I 19 W/m 7,6 C 9,0 C 0,0 km/h (0 Bft) 97,32 %
20.11.2015 08:40 8,9 C 91 % 1010,9 hPa 0,2 l/m 0,0 km/h (0 Bft) N-NW 340 0 min 0,000 mm 0,0 UV-I 26 W/m 7,5 C 8,9 C 0,0 km/h (0 Bft) 96,75 %
20.11.2015 08:45 8,8 C 92 % 1010,9 hPa 0,0 l/m 0,5 km/h (0 Bft) S 175 0 min 0,000 mm 0,0 UV-I 27 W/m 7,6 C 8,8 C 9,7 km/h (2 Bft) 97,39 %
20.11.2015 08:50 8,7 C 92 % 1010,9 hPa 0,0 l/m 13,8 km/h (3 Bft) S-SW 212 0 min 0,000 mm 0,0 UV-I 27 W/m 7,5 C 4,1 C 19,3 km/h (3 Bft) 96,23 %
20.11.2015 08:55 8,6 C 92 % 1010,9 hPa 0,2 l/m 11,5 km/h (2 Bft) W-SW 246 0 min 0,000 mm 0,0 UV-I 26 W/m 7,4 C 5,2 C 19,3 km/h (3 Bft) 97,60 %
20.11.2015 09:00 8,5 C 92 % 1011,0 hPa 0,0 l/m 11,2 km/h (2 Bft) W-SW 240 0 min 0,000 mm 0,0 UV-I 28 W/m 7,3 C 5,2 C 17,7 km/h (3 Bft) 97,52 %
20.11.2015 09:05 8,4 C 92 % 1010,9 hPa 0,0 l/m 9,4 km/h (2 Bft) SW 227 0 min 0,026 mm 0,0 UV-I 38 W/m 7,2 C 6,2 C 14,5 km/h (3 Bft) 97,37 %
20.11.2015 09:10 8,5 C 92 % 1010,8 hPa 0,0 l/m 10,8 km/h (2 Bft) W-SW 252 0 min 0,000 mm 0,0 UV-I 46 W/m 7,3 C 5,5 C 16,1 km/h (3 Bft) 95,65 %
20.11.2015 09:15 8,4 C 92 % 1010,7 hPa 0,0 l/m 8,2 km/h (2 Bft) SW 234 0 min 0,000 mm 0,0 UV-I 49 W/m 7,2 C 7,0 C 16,1 km/h (3 Bft) 97,52 %
20.11.2015 09:20 8,5 C 93 % 1010,6 hPa 0,2 l/m 9,1 km/h (2 Bft) W-SW 242 0 min 0,000 mm 0,0 UV-I 52 W/m 7,4 C 6,5 C 14,5 km/h (3 Bft) 97,30 %
20.11.2015 09:25 8,5 C 93 % 1010,7 hPa 0,0 l/m 8,5 km/h (2 Bft) W 275 0 min 0,000 mm 0,0 UV-I 51 W/m 7,4 C 6,9 C 14,5 km/h (3 Bft) 100,00 %
20.11.2015 09:30 8,5 C 93 % 1010,7 hPa 0,0 l/m 7,5 km/h (2 Bft) W-SW 246 0 min 0,000 mm 0,0 UV-I 48 W/m 7,4 C 7,6 C 16,1 km/h (3 Bft) 97,56 %
20.11.2015 09:35 8,5 C 93 % 1010,7 hPa 0,0 l/m 9,1 km/h (2 Bft) W 260 0 min 0,000 mm 0,0 UV-I 50 W/m 7,4 C 6,5 C 16,1 km/h (3 Bft) 100,00 %
20.11.2015 09:40 8,5 C 93 % 1010,6 hPa 0,0 l/m 8,2 km/h (2 Bft) W 260 0 min 0,000 mm 0,0 UV-I 48 W/m 7,4 C 7,1 C 12,9 km/h (3 Bft) 100,00 %
20.11.2015 09:45 8,4 C 92 % 1010,5 hPa 0,0 l/m 9,9 km/h (2 Bft) W 259 0 min 0,000 mm 0,0 UV-I 47 W/m 7,2 C 5,9 C 17,7 km/h (3 Bft) 99,15 %
20.11.2015 09:50 8,4 C 92 % 1010,4 hPa 0,0 l/m 11,3 km/h (2 Bft) W-SW 238 0 min 0,000 mm 0,0 UV-I 47 W/m 7,2 C 5,1 C 19,3 km/h (3 Bft) 99,13 %
20.11.2015 09:55 8,4 C 92 % 1010,4 hPa 0,2 l/m 8,0 km/h (2 Bft) W 276 0 min 0,000 mm 0,0 UV-I 52 W/m 7,2 C 7,2 C 16,1 km/h (3 Bft) 99,15 %
20.11.2015 10:00 8,3 C 93 % 1010,3 hPa 0,0 l/m 5,5 km/h (1 Bft) W 271 0 min 0,025 mm 0,0 UV-I 59 W/m 7,2 C 8,3 C 11,3 km/h (2 Bft) 98,33 %
20.11.2015 10:05 8,3 C 92 % 1010,1 hPa 0,0 l/m 7,3 km/h (2 Bft) W-SW 247 0 min 0,000 mm 0,0 UV-I 64 W/m 7,1 C 7,6 C 14,5 km/h (3 Bft) 100,00 %
20.11.2015 10:10 8,3 C 93 % 1009,9 hPa 0,0 l/m 5,0 km/h (1 Bft) W-SW 250 0 min 0,000 mm 0,0 UV-I 69 W/m 7,2 C 8,3 C 14,5 km/h (3 Bft) 98,39 %
20.11.2015 10:15 8,3 C 93 % 1009,9 hPa 0,0 l/m 5,1 km/h (1 Bft) W 271 0 min 0,000 mm 0,0 UV-I 62 W/m 7,2 C 8,3 C 11,3 km/h (2 Bft) 98,33 %
20.11.2015 10:20 8,2 C 93 % 1009,8 hPa 0,0 l/m 5,0 km/h (1 Bft) W-NW 296 0 min 0,000 mm 0,0 UV-I 58 W/m 7,1 C 8,2 C 9,7 km/h (2 Bft) 100,00 %
20.11.2015 10:25 8,2 C 93 % 1009,6 hPa 0,0 l/m 5,2 km/h (1 Bft) W-NW 292 0 min 0,000 mm 0,0 UV-I 60 W/m 7,1 C 8,2 C 11,3 km/h (2 Bft) 97,44 %
20.11.2015 10:30 8,1 C 94 % 1009,7 hPa 0,2 l/m 4,8 km/h (1 Bft) W 260 0 min 0,000 mm 0,0 UV-I 57 W/m 7,2 C 8,1 C 9,7 km/h (2 Bft) 100,00 %
20.11.2015 10:35 8,2 C 94 % 1009,6 hPa 0,0 l/m 2,9 km/h (1 Bft) W 271 0 min 0,000 mm 0,0 UV-I 56 W/m 7,3 C 8,2 C 4,8 km/h (1 Bft) 100,00 %
20.11.2015 10:40 8,2 C 95 % 1009,5 hPa 0,0 l/m 3,0 km/h (1 Bft) W 281 0 min 0,000 mm 0,0 UV-I 51 W/m 7,4 C 8,2 C 4,8 km/h (1 Bft) 100,00 %
20.11.2015 10:45 8,2 C 95 % 1009,3 hPa 0,2 l/m 5,4 km/h (1 Bft) W 277 0 min 0,000 mm 0,0 UV-I 47 W/m 7,4 C 8,2 C 11,3 km/h (2 Bft) 98,39 %
20.11.2015 10:50 8,2 C 95 % 1009,2 hPa 0,0 l/m 3,6 km/h (1 Bft) W 273 0 min 0,000 mm 0,0 UV-I 58 W/m 7,4 C 8,2 C 11,3 km/h (2 Bft) 98,17 %
20.11.2015 10:55 8,3 C 95 % 1009,1 hPa 0,0 l/m 5,7 km/h (1 Bft) W-SW 254 0 min 0,000 mm 0,0 UV-I 74 W/m 7,5 C 8,3 C 8,0 km/h (2 Bft) 97,46 %
20.11.2015 11:00 8,3 C 95 % 1008,8 hPa 0,2 l/m 6,0 km/h (2 Bft) W 280 0 min 0,026 mm 0,0 UV-I 79 W/m 7,5 C 8,3 C 14,5 km/h (3 Bft) 97,48 %
20.11.2015 11:05 8,3 C 93 % 1008,8 hPa 0,0 l/m 8,8 km/h (2 Bft) W-SW 239 0 min 0,000 mm 0,0 UV-I 84 W/m 7,2 C 6,5 C 17,7 km/h (3 Bft) 97,50 %
20.11.2015 11:10 8,3 C 92 % 1008,7 hPa 0,0 l/m 8,7 km/h (2 Bft) W 261 0 min 0,000 mm 0,0 UV-I 79 W/m 7,1 C 6,6 C 17,7 km/h (3 Bft) 95,45 %
20.11.2015 11:15 8,2 C 93 % 1008,6 hPa 0,0 l/m 7,8 km/h (2 Bft) W-NW 282 0 min 0,000 mm 0,0 UV-I 87 W/m 7,1 C 7,1 C 17,7 km/h (3 Bft) 97,58 %
20.11.2015 11:20 8,2 C 92 % 1008,4 hPa 0,0 l/m 8,0 km/h (2 Bft) W-NW 290 0 min 0,000 mm 0,1 UV-I 98 W/m 7,0 C 7,0 C 16,1 km/h (3 Bft) 98,15 %
20.11.2015 11:25 8,2 C 93 % 1008,1 hPa 0,0 l/m 7,9 km/h (2 Bft) W 278 0 min 0,000 mm 0,2 UV-I 104 W/m 7,1 C 7,0 C 12,9 km/h (3 Bft) 98,21 %
20.11.2015 11:30 8,2 C 92 % 1008,1 hPa 0,0 l/m 5,9 km/h (2 Bft) W-SW 243 0 min 0,000 mm 0,2 UV-I 103 W/m 7,0 C 8,2 C 12,9 km/h (3 Bft) 100,00 %
20.11.2015 11:35 8,1 C 93 % 1008,1 hPa 0,0 l/m 6,6 km/h (2 Bft) W 280 0 min 0,000 mm 0,0 UV-I 86 W/m 7,0 C 8,0 C 12,9 km/h (3 Bft) 97,50 %
20.11.2015 11:40 8,1 C 94 % 1008,1 hPa 0,0 l/m 6,0 km/h (2 Bft) W 281 0 min 0,000 mm 0,0 UV-I 86 W/m 7,2 C 8,1 C 12,9 km/h (3 Bft) 100,00 %
20.11.2015 11:45 8,1 C 93 % 1008,1 hPa 0,0 l/m 5,9 km/h (2 Bft) W 277 0 min 0,000 mm 0,0 UV-I 82 W/m 7,0 C 8,1 C 9,7 km/h (2 Bft) 97,87 %
20.11.2015 11:55 8,1 C 93 % 1007,6 hPa 0,0 l/m 7,6 km/h (2 Bft) W 265 0 min 0,000 mm 0,0 UV-I 76 W/m 7,0 C 7,2 C 14,5 km/h (3 Bft) 98,68 %
20.11.2015 12:00 8,1 C 92 % 1007,4 hPa 0,2 l/m 4,8 km/h (1 Bft) W 277 0 min 0,050 mm 0,0 UV-I 75 W/m 6,9 C 8,1 C 11,3 km/h (2 Bft) 100,00 %
20.11.2015 12:05 8,1 C 93 % 1007,3 hPa 0,0 l/m 2,3 km/h (1 Bft) W 261 0 min 0,000 mm 0,0 UV-I 86 W/m 7,0 C 8,1 C 6,4 km/h (2 Bft) 97,62 %
20.11.2015 12:10 8,1 C 92 % 1007,2 hPa 0,0 l/m 4,6 km/h (1 Bft) SW 236 0 min 0,000 mm 0,0 UV-I 83 W/m 6,9 C 8,1 C 8,0 km/h (2 Bft) 100,00 %
20.11.2015 12:15 8,1 C 92 % 1007,1 hPa 0,0 l/m 5,2 km/h (1 Bft) S-SW 193 0 min 0,000 mm 0,0 UV-I 83 W/m 6,9 C 8,1 C 8,0 km/h (2 Bft) 99,19 %
20.11.2015 12:20 8,0 C 93 % 1007,0 hPa 0,0 l/m 3,8 km/h (1 Bft) S-SW 196 0 min 0,000 mm 0,0 UV-I 81 W/m 6,9 C 8,0 C 8,0 km/h (2 Bft) 99,11 %
20.11.2015 12:25 8,0 C 93 % 1006,9 hPa 0,0 l/m 2,8 km/h (1 Bft) S-SW 210 0 min 0,000 mm 0,0 UV-I 82 W/m 6,9 C 8,0 C 4,8 km/h (1 Bft) 100,00 %
20.11.2015 12:30 8,1 C 94 % 1006,7 hPa 0,0 l/m 5,1 km/h (1 Bft) O-SO 119 0 min 0,000 mm 0,0 UV-I 73 W/m 7,2 C 8,1 C 11,3 km/h (2 Bft) 100,00 %
20.11.2015 12:35 8,0 C 94 % 1006,6 hPa 0,2 l/m 4,0 km/h (1 Bft) S-SW 211 0 min 0,000 mm 0,0 UV-I 62 W/m 7,1 C 8,0 C 12,9 km/h (3 Bft) 98,26 %
20.11.2015 12:40 7,9 C 92 % 1006,4 hPa 0,0 l/m 0,8 km/h (0 Bft) S 180 0 min 0,000 mm 0,0 UV-I 76 W/m 6,7 C 7,9 C 3,2 km/h (1 Bft) 99,12 %
20.11.2015 12:45 8,0 C 93 % 1006,1 hPa 0,0 l/m 0,4 km/h (0 Bft) S 182 0 min 0,000 mm 0,0 UV-I 81 W/m 6,9 C 8,0 C 3,2 km/h (1 Bft) 99,13 %
20.11.2015 12:50 8,1 C 93 % 1006,0 hPa 0,0 l/m 2,9 km/h (1 Bft) W 276 0 min 0,000 mm 0,0 UV-I 85 W/m 7,0 C 8,1 C 6,4 km/h (2 Bft) 96,69 %
20.11.2015 12:55 8,1 C 91 % 1005,6 hPa 0,0 l/m 2,6 km/h (1 Bft) S 175 0 min 0,000 mm 0,0 UV-I 85 W/m 6,7 C 8,1 C 6,4 km/h (2 Bft) 96,81 %
20.11.2015 13:00 8,1 C 93 % 1005,7 hPa 0,0 l/m 1,5 km/h (1 Bft) SW 232 0 min 0,026 mm 0,0 UV-I 81 W/m 7,0 C 8,1 C 6,4 km/h (2 Bft) 96,38 %
20.11.2015 13:05 8,1 C 92 % 1005,5 hPa 0,0 l/m 1,0 km/h (0 Bft) O-SO 107 0 min 0,000 mm 0,0 UV-I 76 W/m 6,9 C 8,1 C 3,2 km/h (1 Bft) 96,69 %
20.11.2015 13:10 8,1 C 93 % 1005,4 hPa 0,0 l/m 0,2 km/h (0 Bft) O-SO 107 0 min 0,000 mm 0,0 UV-I 73 W/m 7,0 C 8,1 C 1,6 km/h (1 Bft) 97,37 %
20.11.2015 13:15 8,1 C 93 % 1005,4 hPa 0,0 l/m 0,1 km/h (0 Bft) O 99 0 min 0,000 mm 0,0 UV-I 71 W/m 7,0 C 8,1 C 1,6 km/h (1 Bft) 97,52 %
20.11.2015 13:20 8,2 C 94 % 1005,1 hPa 0,2 l/m 0,9 km/h (0 Bft) N-NO 22 0 min 0,000 mm 0,0 UV-I 81 W/m 7,3 C 8,2 C 4,8 km/h (1 Bft) 97,25 %
20.11.2015 13:25 8,2 C 94 % 1004,7 hPa 0,0 l/m 4,6 km/h (1 Bft) O-NO 59 0 min 0,000 mm 0,0 UV-I 76 W/m 7,3 C 8,2 C 8,0 km/h (2 Bft) 99,19 %
20.11.2015 13:30 8,2 C 94 % 1004,6 hPa 0,0 l/m 4,8 km/h (1 Bft) N-NO 29 0 min 0,000 mm 0,0 UV-I 65 W/m 7,3 C 8,2 C 9,7 km/h (2 Bft) 99,11 %
20.11.2015 13:35 8,2 C 93 % 1004,6 hPa 0,0 l/m 1,6 km/h (1 Bft) N-NO 22 0 min 0,000 mm 0,0 UV-I 56 W/m 7,1 C 8,2 C 6,4 km/h (2 Bft) 96,49 %
20.11.2015 13:40 8,2 C 94 % 1004,5 hPa 0,0 l/m 0,4 km/h (0 Bft) N-NO 30 0 min 0,000 mm 0,0 UV-I 55 W/m 7,3 C 8,2 C 1,6 km/h (1 Bft) 98,81 %
20.11.2015 13:45 8,2 C 94 % 1004,2 hPa 0,0 l/m 2,6 km/h (1 Bft) N-NO 30 0 min 0,000 mm 0,0 UV-I 59 W/m 7,3 C 8,2 C 4,8 km/h (1 Bft) 100,00 %
20.11.2015 13:50 8,2 C 93 % 1004,0 hPa 0,0 l/m 2,5 km/h (1 Bft) O-NO 58 0 min 0,000 mm 0,0 UV-I 59 W/m 7,1 C 8,2 C 4,8 km/h (1 Bft) 99,17 %
20.11.2015 13:55 8,2 C 94 % 1003,8 hPa 0,2 l/m 4,2 km/h (1 Bft) O-NO 74 0 min 0,000 mm 0,0 UV-I 55 W/m 7,3 C 8,2 C 6,4 km/h (2 Bft) 98,25 %
20.11.2015 14:00 8,2 C 95 % 1003,6 hPa 0,0 l/m 3,3 km/h (1 Bft) O-NO 75 0 min 0,025 mm 0,0 UV-I 49 W/m 7,4 C 8,2 C 6,4 km/h (2 Bft) 99,11 %
20.11.2015 14:05 8,2 C 94 % 1003,5 hPa 0,2 l/m 4,7 km/h (1 Bft) O-NO 63 0 min 0,000 mm 0,0 UV-I 48 W/m 7,3 C 8,2 C 8,0 km/h (2 Bft) 99,19 %
20.11.2015 14:10 8,2 C 94 % 1003,4 hPa 0,0 l/m 5,5 km/h (1 Bft) O-NO 72 0 min 0,000 mm 0,0 UV-I 46 W/m 7,3 C 8,2 C 8,0 km/h (2 Bft) 100,00 %
20.11.2015 14:15 8,1 C 94 % 1003,3 hPa 0,0 l/m 5,1 km/h (1 Bft) NO 56 0 min 0,000 mm 0,0 UV-I 46 W/m 7,2 C 8,1 C 8,0 km/h (2 Bft) 99,17 %
20.11.2015 14:20 8,2 C 95 % 1003,1 hPa 0,2 l/m 2,7 km/h (1 Bft) N-NO 15 0 min 0,000 mm 0,0 UV-I 37 W/m 7,4 C 8,2 C 6,4 km/h (2 Bft) 99,17 %
20.11.2015 14:25 8,2 C 95 % 1003,0 hPa 0,0 l/m 4,4 km/h (1 Bft) N-NO 19 0 min 0,000 mm 0,0 UV-I 31 W/m 7,4 C 8,2 C 8,0 km/h (2 Bft) 99,15 %
20.11.2015 14:30 8,2 C 95 % 1002,8 hPa 0,2 l/m 4,6 km/h (1 Bft) N-NO 30 0 min 0,000 mm 0,0 UV-I 27 W/m 7,4 C 8,2 C 6,4 km/h (2 Bft) 99,15 %
20.11.2015 14:35 8,2 C 95 % 1002,6 hPa 0,0 l/m 5,3 km/h (1 Bft) NO 56 0 min 0,000 mm 0,0 UV-I 29 W/m 7,4 C 8,2 C 8,0 km/h (2 Bft) 99,11 %
20.11.2015 14:40 8,1 C 95 % 1002,4 hPa 0,0 l/m 4,5 km/h (1 Bft) NO 56 0 min 0,000 mm 0,0 UV-I 28 W/m 7,3 C 8,1 C 6,4 km/h (2 Bft) 100,00 %
20.11.2015 14:45 8,1 C 96 % 1002,3 hPa 0,2 l/m 3,4 km/h (1 Bft) NO 50 0 min 0,000 mm 0,0 UV-I 21 W/m 7,5 C 8,1 C 4,8 km/h (1 Bft) 99,17 %
20.11.2015 14:50 8,2 C 95 % 1002,1 hPa 0,2 l/m 4,0 km/h (1 Bft) O-NO 67 0 min 0,000 mm 0,0 UV-I 20 W/m 7,4 C 8,2 C 6,4 km/h (2 Bft) 98,15 %
20.11.2015 14:55 8,2 C 96 % 1002,0 hPa 0,0 l/m 3,4 km/h (1 Bft) O-NO 69 0 min 0,000 mm 0,0 UV-I 18 W/m 7,6 C 8,2 C 4,8 km/h (1 Bft) 96,61 %
20.11.2015 15:00 8,2 C 96 % 1002,0 hPa 0,2 l/m 3,9 km/h (1 Bft) O-NO 59 0 min 0,000 mm 0,0 UV-I 18 W/m 7,6 C 8,2 C 6,4 km/h (2 Bft) 97,52 %
20.11.2015 15:05 8,1 C 95 % 1001,8 hPa 0,2 l/m 5,6 km/h (1 Bft) O-NO 63 0 min 0,026 mm 0,0 UV-I 18 W/m 7,3 C 8,1 C 8,0 km/h (2 Bft) 95,12 %
20.11.2015 15:10 8,1 C 96 % 1001,7 hPa 0,0 l/m 3,5 km/h (1 Bft) O-NO 66 0 min 0,000 mm 0,0 UV-I 16 W/m 7,5 C 8,1 C 8,0 km/h (2 Bft) 96,43 %
20.11.2015 15:15 8,1 C 96 % 1001,7 hPa 0,0 l/m 2,7 km/h (1 Bft) O-NO 63 0 min 0,000 mm 0,0 UV-I 14 W/m 7,5 C 8,1 C 4,8 km/h (1 Bft) 95,12 %
20.11.2015 15:20 8,1 C 96 % 1001,6 hPa 0,2 l/m 2,9 km/h (1 Bft) N-NO 24 0 min 0,000 mm 0,0 UV-I 11 W/m 7,5 C 8,1 C 4,8 km/h (1 Bft) 97,25 %
20.11.2015 15:25 8,2 C 96 % 1001,5 hPa 0,2 l/m 1,8 km/h (1 Bft) N-NO 27 0 min 0,000 mm 0,0 UV-I 11 W/m 7,6 C 8,2 C 4,8 km/h (1 Bft) 98,26 %
20.11.2015 15:30 8,1 C 96 % 1001,4 hPa 0,0 l/m 3,0 km/h (1 Bft) NO 42 0 min 0,000 mm 0,0 UV-I 12 W/m 7,5 C 8,1 C 6,4 km/h (2 Bft) 100,00 %
20.11.2015 15:35 8,1 C 96 % 1001,4 hPa 0,2 l/m 2,9 km/h (1 Bft) SO 124 0 min 0,000 mm 0,0 UV-I 11 W/m 7,5 C 8,1 C 4,8 km/h (1 Bft) 99,13 %
20.11.2015 15:40 8,2 C 96 % 1001,3 hPa 0,2 l/m 1,5 km/h (1 Bft) O 97 0 min 0,000 mm 0,0 UV-I 11 W/m 7,6 C 8,2 C 3,2 km/h (1 Bft) 99,17 %
20.11.2015 15:45 8,2 C 97 % 1001,2 hPa 0,0 l/m 2,0 km/h (1 Bft) NO 38 0 min 0,000 mm 0,0 UV-I 8 W/m 7,8 C 8,2 C 4,8 km/h (1 Bft) 98,10 %
20.11.2015 15:50 8,2 C 97 % 1001,0 hPa 0,0 l/m 3,4 km/h (1 Bft) NO 49 0 min 0,000 mm 0,0 UV-I 7 W/m 7,8 C 8,2 C 4,8 km/h (1 Bft) 98,43 %
20.11.2015 15:55 8,2 C 97 % 1000,9 hPa 0,2 l/m 0,7 km/h (0 Bft) NO 41 0 min 0,000 mm 0,0 UV-I 2 W/m 7,8 C 8,2 C 3,2 km/h (1 Bft) 100,00 %
20.11.2015 16:00 8,2 C 97 % 1000,8 hPa 0,2 l/m 0,4 km/h (0 Bft) N-NO 31 0 min 0,000 mm 0,0 UV-I 0 W/m 7,8 C 8,2 C 3,2 km/h (1 Bft) 100,00 %
20.11.2015 16:05 8,2 C 97 % 1000,8 hPa 0,0 l/m 0,3 km/h (0 Bft) N 355 0 min 0,000 mm 0,0 UV-I 0 W/m 7,8 C 8,2 C 3,2 km/h (1 Bft) 100,00 %
20.11.2015 16:20 8,1 C 97 % 1000,3 hPa 0,4 l/m 4,5 km/h (1 Bft) NO 42 0 min 0,000 mm 0,0 UV-I 0 W/m 7,7 C 8,1 C 6,4 km/h (2 Bft) 98,93 %
20.11.2015 16:25 8,1 C 97 % 1000,2 hPa 0,2 l/m 2,4 km/h (1 Bft) NO 39 0 min 0,000 mm 0,0 UV-I 0 W/m 7,7 C 8,1 C 4,8 km/h (1 Bft) 99,19 %
20.11.2015 16:30 8,0 C 97 % 1000,1 hPa 0,2 l/m 2,1 km/h (1 Bft) NO 55 0 min 0,000 mm 0,0 UV-I 0 W/m 7,6 C 8,0 C 4,8 km/h (1 Bft) 98,26 %
20.11.2015 16:35 8,1 C 97 % 999,9 hPa 0,2 l/m 3,0 km/h (1 Bft) O-NO 63 0 min 0,000 mm 0,0 UV-I 0 W/m 7,7 C 8,1 C 4,8 km/h (1 Bft) 98,35 %
20.11.2015 16:40 8,1 C 97 % 999,8 hPa 0,2 l/m 3,3 km/h (1 Bft) O-NO 67 0 min 0,000 mm 0,0 UV-I 0 W/m 7,7 C 8,1 C 4,8 km/h (1 Bft) 98,29 %
20.11.2015 16:45 8,1 C 97 % 999,7 hPa 0,2 l/m 2,8 km/h (1 Bft) O-NO 63 0 min 0,000 mm 0,0 UV-I 0 W/m 7,7 C 8,1 C 6,4 km/h (2 Bft) 99,13 %
20.11.2015 16:50 8,1 C 97 % 999,5 hPa 0,0 l/m 3,4 km/h (1 Bft) O-NO 70 0 min 0,000 mm 0,0 UV-I 0 W/m 7,7 C 8,1 C 6,4 km/h (2 Bft) 96,40 %
20.11.2015 16:55 8,1 C 97 % 999,4 hPa 0,4 l/m 2,8 km/h (1 Bft) O-SO 117 0 min 0,000 mm 0,0 UV-I 0 W/m 7,7 C 8,1 C 4,8 km/h (1 Bft) 97,46 %
20.11.2015 17:00 8,1 C 97 % 999,2 hPa 0,2 l/m 4,6 km/h (1 Bft) O-NO 62 0 min 0,000 mm 0,0 UV-I 0 W/m 7,7 C 8,1 C 9,7 km/h (2 Bft) 95,80 %
20.11.2015 17:05 8,1 C 97 % 999,0 hPa 0,0 l/m 3,3 km/h (1 Bft) O 85 0 min 0,000 mm 0,0 UV-I 0 W/m 7,7 C 8,1 C 6,4 km/h (2 Bft) 97,37 %
20.11.2015 17:10 8,1 C 97 % 998,7 hPa 0,2 l/m 3,5 km/h (1 Bft) O-NO 59 0 min 0,000 mm 0,0 UV-I 0 W/m 7,7 C 8,1 C 8,0 km/h (2 Bft) 95,97 %
20.11.2015 17:15 8,2 C 97 % 998,2 hPa 0,4 l/m 5,4 km/h (1 Bft) O 89 0 min 0,000 mm 0,0 UV-I 0 W/m 7,8 C 8,2 C 9,7 km/h (2 Bft) 98,21 %
20.11.2015 17:20 8,1 C 97 % 998,1 hPa 0,2 l/m 9,5 km/h (2 Bft) O-NO 67 0 min 0,000 mm 0,0 UV-I 0 W/m 7,7 C 5,8 C 16,1 km/h (3 Bft) 96,67 %
20.11.2015 17:25 8,2 C 97 % 997,9 hPa 0,0 l/m 11,3 km/h (2 Bft) O 80 0 min 0,000 mm 0,0 UV-I 0 W/m 7,8 C 4,8 C 16,1 km/h (3 Bft) 98,31 %
20.11.2015 17:30 8,2 C 97 % 997,6 hPa 0,2 l/m 9,6 km/h (2 Bft) O 79 0 min 0,000 mm 0,0 UV-I 0 W/m 7,8 C 5,9 C 14,5 km/h (3 Bft) 99,12 %
20.11.2015 17:35 8,2 C 97 % 997,7 hPa 0,2 l/m 7,2 km/h (2 Bft) NO 46 0 min 0,000 mm 0,0 UV-I 0 W/m 7,8 C 7,6 C 11,3 km/h (2 Bft) 99,11 %
20.11.2015 17:40 8,2 C 97 % 997,6 hPa 0,2 l/m 5,7 km/h (1 Bft) NO 51 0 min 0,000 mm 0,0 UV-I 0 W/m 7,8 C 8,2 C 9,7 km/h (2 Bft) 99,19 %
20.11.2015 17:45 8,2 C 97 % 997,5 hPa 0,2 l/m 6,4 km/h (2 Bft) NO 45 0 min 0,000 mm 0,0 UV-I 0 W/m 7,8 C 8,2 C 8,0 km/h (2 Bft) 98,06 %
20.11.2015 17:50 8,2 C 97 % 997,3 hPa 0,2 l/m 6,9 km/h (2 Bft) NO 49 0 min 0,000 mm 0,0 UV-I 0 W/m 7,8 C 7,8 C 9,7 km/h (2 Bft) 100,00 %
20.11.2015 17:55 8,2 C 97 % 997,0 hPa 0,2 l/m 6,7 km/h (2 Bft) NO 55 0 min 0,000 mm 0,0 UV-I 0 W/m 7,8 C 8,0 C 12,9 km/h (3 Bft) 100,00 %
20.11.2015 18:00 8,2 C 97 % 997,4 hPa 0,2 l/m 3,0 km/h (1 Bft) NW 324 0 min 0,000 mm 0,0 UV-I 0 W/m 7,8 C 8,2 C 9,7 km/h (2 Bft) 99,17 %
20.11.2015 18:05 8,2 C 97 % 996,7 hPa 0,2 l/m 3,7 km/h (1 Bft) NO 42 0 min 0,000 mm 0,0 UV-I 0 W/m 7,8 C 8,2 C 8,0 km/h (2 Bft) 98,26 %
20.11.2015 18:10 8,2 C 97 % 996,6 hPa 0,0 l/m 3,3 km/h (1 Bft) O-NO 64 0 min 0,000 mm 0,0 UV-I 0 W/m 7,8 C 8,2 C 8,0 km/h (2 Bft) 100,00 %
20.11.2015 18:15 8,2 C 97 % 996,9 hPa 0,0 l/m 4,8 km/h (1 Bft) NW 322 0 min 0,000 mm 0,0 UV-I 0 W/m 7,8 C 8,2 C 11,3 km/h (2 Bft) 99,11 %
20.11.2015 18:20 8,2 C 98 % 996,6 hPa 0,0 l/m 2,9 km/h (1 Bft) NO 51 0 min 0,000 mm 0,0 UV-I 0 W/m 7,9 C 8,2 C 8,0 km/h (2 Bft) 100,00 %
20.11.2015 18:25 8,2 C 98 % 996,7 hPa 0,0 l/m 3,1 km/h (1 Bft) NW 319 0 min 0,000 mm 0,0 UV-I 0 W/m 7,9 C 8,2 C 8,0 km/h (2 Bft) 97,50 %
20.11.2015 18:30 8,2 C 98 % 996,5 hPa 0,2 l/m 3,0 km/h (1 Bft) N-NW 339 0 min 0,000 mm 0,0 UV-I 0 W/m 7,9 C 8,2 C 8,0 km/h (2 Bft) 100,00 %
20.11.2015 18:35 8,1 C 97 % 996,5 hPa 0,0 l/m 3,1 km/h (1 Bft) N-NW 348 0 min 0,000 mm 0,0 UV-I 0 W/m 7,7 C 8,1 C 8,0 km/h (2 Bft) 96,69 %
20.11.2015 18:40 8,1 C 97 % 996,6 hPa 0,2 l/m 2,2 km/h (1 Bft) N-NO 26 0 min 0,000 mm 0,0 UV-I 0 W/m 7,7 C 8,1 C 4,8 km/h (1 Bft) 100,00 %
20.11.2015 18:45 8,1 C 97 % 996,5 hPa 0,2 l/m 2,8 km/h (1 Bft) N-NO 15 0 min 0,000 mm 0,0 UV-I 0 W/m 7,7 C 8,1 C 8,0 km/h (2 Bft) 99,15 %
20.11.2015 18:50 8,1 C 97 % 996,5 hPa 0,2 l/m 1,4 km/h (1 Bft) NW 313 0 min 0,000 mm 0,0 UV-I 0 W/m 7,7 C 8,1 C 3,2 km/h (1 Bft) 98,37 %
20.11.2015 18:55 8,1 C 97 % 996,5 hPa 0,2 l/m 1,0 km/h (0 Bft) N 5 0 min 0,000 mm 0,0 UV-I 0 W/m 7,7 C 8,1 C 4,8 km/h (1 Bft) 98,11 %
20.11.2015 19:00 8,1 C 98 % 996,7 hPa 0,0 l/m 0,4 km/h (0 Bft) N-NW 343 0 min 0,000 mm 0,0 UV-I 0 W/m 7,8 C 8,1 C 1,6 km/h (1 Bft) 96,06 %
20.11.2015 19:05 8,1 C 98 % 996,6 hPa 0,2 l/m 1,1 km/h (1 Bft) NW 315 0 min 0,000 mm 0,0 UV-I 0 W/m 7,8 C 8,1 C 4,8 km/h (1 Bft) 96,30 %
20.11.2015 19:10 8,1 C 98 % 996,4 hPa 0,0 l/m 1,4 km/h (1 Bft) N-NW 342 0 min 0,000 mm 0,0 UV-I 0 W/m 7,8 C 8,1 C 3,2 km/h (1 Bft) 97,52 %
20.11.2015 19:15 8,0 C 98 % 996,3 hPa 0,2 l/m 0,5 km/h (0 Bft) N 5 0 min 0,000 mm 0,0 UV-I 0 W/m 7,7 C 8,0 C 3,2 km/h (1 Bft) 96,61 %
20.11.2015 19:20 8,0 C 98 % 996,4 hPa 0,0 l/m 0,7 km/h (0 Bft) N 349 0 min 0,000 mm 0,0 UV-I 0 W/m 7,7 C 8,0 C 3,2 km/h (1 Bft) 95,60 %
20.11.2015 19:35 8,0 C 98 % 996,1 hPa 0,0 l/m 0,0 km/h (0 Bft) N 349 0 min 0,000 mm 0,0 UV-I 0 W/m 7,7 C 8,0 C 1,6 km/h (1 Bft) 98,67 %
20.11.2015 19:40 8,0 C 98 % 996,0 hPa 0,0 l/m 0,2 km/h (0 Bft) N 349 0 min 0,000 mm 0,0 UV-I 0 W/m 7,7 C 8,0 C 1,6 km/h (1 Bft) 97,52 %
20.11.2015 19:45 8,0 C 98 % 996,0 hPa 0,0 l/m 0,9 km/h (0 Bft) N 349 0 min 0,000 mm 0,0 UV-I 0 W/m 7,7 C 8,0 C 3,2 km/h (1 Bft) 99,15 %
20.11.2015 19:50 8,0 C 98 % 996,0 hPa 0,0 l/m 0,7 km/h (0 Bft) N 349 0 min 0,000 mm 0,0 UV-I 0 W/m 7,7 C 8,0 C 1,6 km/h (1 Bft) 100,00 %
20.11.2015 19:55 8,0 C 98 % 995,8 hPa 0,0 l/m 0,2 km/h (0 Bft) N 349 0 min 0,000 mm 0,0 UV-I 0 W/m 7,7 C 8,0 C 1,6 km/h (1 Bft) 98,21 %
20.11.2015 20:00 8,0 C 98 % 995,7 hPa 0,0 l/m 0,2 km/h (0 Bft) N 349 0 min 0,000 mm 0,0 UV-I 0 W/m 7,7 C 8,0 C 1,6 km/h (1 Bft) 100,00 %
20.11.2015 20:05 8,0 C 98 % 995,7 hPa 0,0 l/m 0,0 km/h (0 Bft) N 349 0 min 0,000 mm 0,0 UV-I 0 W/m 7,7 C 8,0 C 0,0 km/h (0 Bft) 98,35 %
20.11.2015 20:10 8,1 C 98 % 995,8 hPa 0,2 l/m 0,1 km/h (0 Bft) N 349 0 min 0,000 mm 0,0 UV-I 0 W/m 7,8 C 8,1 C 1,6 km/h (1 Bft) 100,00 %
20.11.2015 20:15 8,1 C 98 % 995,9 hPa 0,0 l/m 1,4 km/h (1 Bft) NW 312 0 min 0,000 mm 0,0 UV-I 0 W/m 7,8 C 8,1 C 3,2 km/h (1 Bft) 98,21 %
20.11.2015 20:20 8,1 C 98 % 996,0 hPa 0,4 l/m 2,9 km/h (1 Bft) W 280 0 min 0,000 mm 0,0 UV-I 0 W/m 7,8 C 8,1 C 4,8 km/h (1 Bft) 96,69 %
20.11.2015 20:25 8,1 C 98 % 995,8 hPa 0,0 l/m 2,8 km/h (1 Bft) W 270 0 min 0,000 mm 0,0 UV-I 0 W/m 7,8 C 8,1 C 4,8 km/h (1 Bft) 98,25 %
20.11.2015 20:30 8,1 C 98 % 995,8 hPa 0,2 l/m 2,5 km/h (1 Bft) W-SW 238 0 min 0,000 mm 0,0 UV-I 0 W/m 7,8 C 8,1 C 4,8 km/h (1 Bft) 99,19 %
20.11.2015 20:35 8,2 C 98 % 995,7 hPa 0,2 l/m 3,5 km/h (1 Bft) S-SW 199 0 min 0,000 mm 0,0 UV-I 0 W/m 7,9 C 8,2 C 6,4 km/h (2 Bft) 100,00 %
20.11.2015 20:40 8,2 C 98 % 995,7 hPa 0,2 l/m 1,9 km/h (1 Bft) S-SW 199 0 min 0,000 mm 0,0 UV-I 0 W/m 7,9 C 8,2 C 3,2 km/h (1 Bft) 99,15 %
20.11.2015 20:45 8,2 C 98 % 995,6 hPa 0,2 l/m 2,7 km/h (1 Bft) S-SW 192 0 min 0,000 mm 0,0 UV-I 0 W/m 7,9 C 8,2 C 4,8 km/h (1 Bft) 99,08 %
20.11.2015 20:50 8,2 C 98 % 995,7 hPa 0,0 l/m 4,3 km/h (1 Bft) S 182 0 min 0,000 mm 0,0 UV-I 0 W/m 7,9 C 8,2 C 6,4 km/h (2 Bft) 99,17 %
20.11.2015 20:55 8,2 C 98 % 995,9 hPa 0,2 l/m 4,3 km/h (1 Bft) W-SW 246 0 min 0,000 mm 0,0 UV-I 0 W/m 7,9 C 8,2 C 8,0 km/h (2 Bft) 98,21 %
20.11.2015 21:00 8,2 C 98 % 995,8 hPa 0,2 l/m 5,3 km/h (1 Bft) SW 219 0 min 0,000 mm 0,0 UV-I 0 W/m 7,9 C 8,2 C 8,0 km/h (2 Bft) 96,77 %
20.11.2015 21:05 8,2 C 98 % 995,8 hPa 0,0 l/m 7,8 km/h (2 Bft) SW 225 0 min 0,000 mm 0,0 UV-I 0 W/m 7,9 C 7,1 C 11,3 km/h (2 Bft) 95,50 %
20.11.2015 21:10 8,3 C 98 % 995,9 hPa 0,4 l/m 5,7 km/h (1 Bft) W 276 0 min 0,000 mm 0,0 UV-I 0 W/m 8,0 C 8,3 C 11,3 km/h (2 Bft) 97,39 %
20.11.2015 21:15 8,3 C 98 % 995,8 hPa 0,0 l/m 5,3 km/h (1 Bft) W 267 0 min 0,000 mm 0,0 UV-I 0 W/m 8,0 C 8,3 C 11,3 km/h (2 Bft) 95,76 %
20.11.2015 21:20 8,3 C 98 % 995,8 hPa 0,2 l/m 5,8 km/h (2 Bft) S-SW 200 0 min 0,000 mm 0,0 UV-I 0 W/m 8,0 C 8,3 C 9,7 km/h (2 Bft) 94,87 %
20.11.2015 21:25 8,3 C 98 % 995,8 hPa 0,2 l/m 5,7 km/h (1 Bft) W-SW 257 0 min 0,000 mm 0,0 UV-I 0 W/m 8,0 C 8,3 C 11,3 km/h (2 Bft) 97,46 %
20.11.2015 21:30 8,3 C 98 % 995,8 hPa 0,2 l/m 6,6 km/h (2 Bft) SW 227 0 min 0,000 mm 0,0 UV-I 0 W/m 8,0 C 8,2 C 9,7 km/h (2 Bft) 100,00 %
20.11.2015 21:35 8,3 C 98 % 995,9 hPa 0,2 l/m 5,3 km/h (1 Bft) W-NW 288 0 min 0,000 mm 0,0 UV-I 0 W/m 8,0 C 8,3 C 11,3 km/h (2 Bft) 99,08 %
20.11.2015 21:40 8,3 C 98 % 995,9 hPa 0,6 l/m 2,9 km/h (1 Bft) W 281 0 min 0,000 mm 0,0 UV-I 0 W/m 8,0 C 8,3 C 8,0 km/h (2 Bft) 99,15 %
20.11.2015 21:45 8,2 C 97 % 995,9 hPa 0,4 l/m 13,1 km/h (3 Bft) W-SW 237 0 min 0,000 mm 0,0 UV-I 0 W/m 7,8 C 3,9 C 25,7 km/h (4 Bft) 100,00 %
20.11.2015 21:50 8,2 C 97 % 995,9 hPa 0,2 l/m 9,8 km/h (2 Bft) W-SW 252 0 min 0,000 mm 0,0 UV-I 0 W/m 7,8 C 5,7 C 20,9 km/h (4 Bft) 100,00 %
20.11.2015 21:55 8,1 C 96 % 996,1 hPa 0,2 l/m 13,7 km/h (3 Bft) W 276 0 min 0,000 mm 0,0 UV-I 0 W/m 7,5 C 3,4 C 22,5 km/h (4 Bft) 98,94 %
20.11.2015 22:00 8,0 C 95 % 996,1 hPa 0,2 l/m 9,4 km/h (2 Bft) W-SW 254 0 min 0,000 mm 0,0 UV-I 0 W/m 7,2 C 5,8 C 19,3 km/h (3 Bft) 100,00 %
20.11.2015 22:05 7,8 C 95 % 996,1 hPa 0,2 l/m 8,2 km/h (2 Bft) NW 315 0 min 0,000 mm 0,0 UV-I 0 W/m 7,0 C 6,4 C 16,1 km/h (3 Bft) 100,00 %
20.11.2015 22:10 7,6 C 94 % 996,2 hPa 0,0 l/m 10,1 km/h (2 Bft) W 271 0 min 0,000 mm 0,0 UV-I 0 W/m 6,7 C 4,9 C 17,7 km/h (3 Bft) 99,17 %
20.11.2015 22:15 7,3 C 93 % 996,3 hPa 0,2 l/m 8,3 km/h (2 Bft) W-SW 252 0 min 0,000 mm 0,0 UV-I 0 W/m 6,2 C 5,8 C 19,3 km/h (3 Bft) 100,00 %
20.11.2015 22:20 7,2 C 94 % 996,3 hPa 0,0 l/m 6,8 km/h (2 Bft) W-NW 294 0 min 0,000 mm 0,0 UV-I 0 W/m 6,3 C 6,9 C 16,1 km/h (3 Bft) 100,00 %
20.11.2015 22:25 7,1 C 95 % 996,5 hPa 0,2 l/m 6,5 km/h (2 Bft) W 277 0 min 0,000 mm 0,0 UV-I 0 W/m 6,4 C 7,0 C 16,1 km/h (3 Bft) 100,00 %
20.11.2015 22:30 7,0 C 95 % 996,5 hPa 0,2 l/m 7,2 km/h (2 Bft) W-NW 284 0 min 0,000 mm 0,0 UV-I 0 W/m 6,3 C 6,3 C 20,9 km/h (4 Bft) 99,13 %
20.11.2015 22:35 6,9 C 95 % 996,5 hPa 0,0 l/m 6,2 km/h (2 Bft) W 274 0 min 0,000 mm 0,0 UV-I 0 W/m 6,2 C 6,9 C 11,3 km/h (2 Bft) 99,15 %
20.11.2015 22:40 6,9 C 96 % 996,5 hPa 0,2 l/m 7,9 km/h (2 Bft) W-SW 250 0 min 0,000 mm 0,0 UV-I 0 W/m 6,3 C 5,7 C 17,7 km/h (3 Bft) 99,15 %
20.11.2015 22:45 6,9 C 95 % 996,6 hPa 0,0 l/m 10,3 km/h (2 Bft) W 280 0 min 0,000 mm 0,0 UV-I 0 W/m 6,2 C 4,0 C 16,1 km/h (3 Bft) 100,00 %
20.11.2015 22:50 6,9 C 95 % 996,6 hPa 0,2 l/m 7,8 km/h (2 Bft) W-NW 292 0 min 0,000 mm 0,0 UV-I 0 W/m 6,2 C 5,8 C 19,3 km/h (3 Bft) 100,00 %
20.11.2015 22:55 6,8 C 95 % 996,6 hPa 0,0 l/m 11,7 km/h (2 Bft) NW 304 0 min 0,000 mm 0,0 UV-I 0 W/m 6,1 C 3,0 C 25,7 km/h (4 Bft) 97,17 %
20.11.2015 23:00 6,7 C 95 % 996,7 hPa 0,0 l/m 10,4 km/h (2 Bft) W 267 0 min 0,000 mm 0,0 UV-I 0 W/m 6,0 C 3,7 C 19,3 km/h (3 Bft) 96,85 %
20.11.2015 23:05 6,7 C 95 % 996,7 hPa 0,2 l/m 7,3 km/h (2 Bft) W-SW 242 0 min 0,000 mm 0,0 UV-I 0 W/m 6,0 C 6,0 C 16,1 km/h (3 Bft) 94,74 %
20.11.2015 23:10 6,6 C 94 % 996,8 hPa 0,0 l/m 10,7 km/h (2 Bft) NW 304 0 min 0,000 mm 0,0 UV-I 0 W/m 5,7 C 3,4 C 17,7 km/h (3 Bft) 96,69 %
20.11.2015 23:15 6,5 C 94 % 996,7 hPa 0,0 l/m 13,3 km/h (3 Bft) W 271 0 min 0,000 mm 0,0 UV-I 0 W/m 5,6 C 1,8 C 29,0 km/h (5 Bft) 96,43 %
20.11.2015 23:20 6,4 C 94 % 996,7 hPa 0,0 l/m 12,1 km/h (2 Bft) W 278 0 min 0,000 mm 0,0 UV-I 0 W/m 5,5 C 2,3 C 27,4 km/h (4 Bft) 97,50 %
20.11.2015 23:25 6,3 C 94 % 996,7 hPa 0,2 l/m 9,3 km/h (2 Bft) W 259 0 min 0,000 mm 0,0 UV-I 0 W/m 5,4 C 4,0 C 20,9 km/h (4 Bft) 95,28 %
20.11.2015 23:30 6,2 C 95 % 996,7 hPa 0,0 l/m 8,1 km/h (2 Bft) W-SW 250 0 min 0,000 mm 0,0 UV-I 0 W/m 5,5 C 4,8 C 24,1 km/h (4 Bft) 97,58 %
20.11.2015 23:35 6,2 C 95 % 996,8 hPa 0,0 l/m 9,3 km/h (2 Bft) W 271 0 min 0,000 mm 0,0 UV-I 0 W/m 5,5 C 3,9 C 17,7 km/h (3 Bft) 100,00 %
20.11.2015 23:40 6,2 C 95 % 996,9 hPa 0,0 l/m 13,7 km/h (3 Bft) W-NW 292 0 min 0,000 mm 0,0 UV-I 0 W/m 5,5 C 1,2 C 25,7 km/h (4 Bft) 96,69 %
20.11.2015 23:45 6,2 C 95 % 997,0 hPa 0,2 l/m 10,9 km/h (2 Bft) W 273 0 min 0,000 mm 0,0 UV-I 0 W/m 5,5 C 2,8 C 20,9 km/h (4 Bft) 99,15 %
20.11.2015 23:50 6,1 C 94 % 997,2 hPa 0,0 l/m 12,4 km/h (3 Bft) W 261 0 min 0,000 mm 0,0 UV-I 0 W/m 5,2 C 1,8 C 22,5 km/h (4 Bft) 99,06 %
20.11.2015 23:55 5,8 C 93 % 997,4 hPa 0,2 l/m 12,8 km/h (3 Bft) W 263 0 min 0,000 mm 0,0 UV-I 0 W/m 4,8 C 1,2 C 27,4 km/h (4 Bft) 100,00 %
_ Min-Zeit 23:55 02:30 20:45 - 08:20 - - - - - - 23:55 23:40 08:20 23:05
Minimum _ 5,8 C 55 % 995,6 hPa - 0,0 km/h (0 Bft) - - - - - - 4,8 C 1,2 C 0,0 km/h (0 Bft) 94,74 %
_ Max-Zeit 02:50 18:20 08:30 21:40 03:35 - - 00:00 02:00 11:25 11:25 05:35 05:35 05:30 00:10
Maximum _ 17,4 C 98 % 1011,0 hPa 0,6 l/m 22,0 km/h
W-NW (4 Bft)
- - 0 min 0,102 mm 0,2 UV-I 104 W/m 9,6 C 15,2 C 49,9 km/h
W (6 Bft)
100,00 %
Durchschnitt _ 10,3 C 86 % 1004,2 hPa #20,8 l/m 7,9 km/h (2 Bft) W - #0 min. #0,737 mm 0,2 UV-I 49 W/m 7,7 C 8,9 C 15,8 km/h (3 Bft) 98,67 %